FW0295 Weather Reports


time (UTC)temp
C
wind
direction
speed
KPH
gust
KPH
rain 1hr
cm
rain 24hr
cm
rain mn
cm
humidity
%
barometer
mb
20260906200023 33 149 0.0 0.0 0.00 0.00 0.00 39 1010.2
20260906194525 33 194 0.0 0.0 0.00 0.00 0.00 40 1010.4
20260906193018 33 144 0.0 0.0 0.00 0.00 0.00 41 1010.8
20260906191526 32 129 0.0 0.0 0.00 0.00 0.00 42 1011.0
20260906190018 32 167 0.0 0.0 0.00 0.00 0.00 42 1011.3
20260906184517 32 127 0.0 0.0 0.00 0.00 0.00 44 1011.4
20260906183046 31 123 0.0 0.0 0.00 0.00 0.00 46 1011.7
20260906181546 30 96 0.0 0.0 0.00 0.00 0.00 49 1012.1
20260906180100 29 123 0.0 0.0 0.00 0.00 0.00 54 1012.4
20260906174543 28 112 0.0 0.0 0.00 0.00 0.00 56 1012.5
20260906173042 28 94 0.0 0.0 0.00 0.00 0.00 58 1012.9
20260906171543 27 112 0.0 0.0 0.00 0.00 0.00 62 1013.2
20260906170049 26 94 0.0 0.0 0.00 0.00 0.00 70 1013.4
20260906164540 25 96 0.0 0.0 0.00 0.00 0.00 69 1013.6
20260906163042 26 360 0.0 0.0 0.00 0.00 0.00 63 1013.9
20260906161537 26 360 0.0 0.0 0.00 0.00 0.00 64 1013.9
20260906160039 26 360 0.0 0.0 0.00 0.00 0.00 64 1013.7
20260906154533 26 360 0.0 0.0 0.00 0.00 0.00 62 1013.6
20260906153031 26 360 0.0 0.0 0.00 0.00 0.00 62 1013.4
20260906151533 26 360 0.0 0.0 0.00 0.00 0.00 63 1013.4
20260906150032 26 360 0.0 0.0 0.00 0.00 0.00 62 1013.2
20260906144532 26 360 0.0 0.0 0.00 0.00 0.00 62 1013.1
20260906143033 26 360 0.0 0.0 0.00 0.00 0.00 61 1012.9
20260906141529 26 360 0.0 0.0 0.00 0.00 0.00 63 1012.9
20260906140030 25 129 0.0 0.0 0.00 0.00 0.00 66 1012.3
20260906134518 24 157 0.0 0.0 0.00 0.00 0.00 69 1012.1
20260906133015 23 164 0.0 0.0 0.00 0.00 0.00 71 1011.9
20260906131529 23 360 0.0 0.0 0.00 0.00 0.00 72 1011.7
20260906130012 22 190 0.0 0.0 0.00 0.00 0.00 73 1011.5
20260906124508 22 164 0.0 0.0 0.00 0.00 0.00 73 1011.2
20260906123006 22 194 0.0 0.0 0.00 0.00 0.00 74 1011.0
20260906121505 21 196 0.0 0.0 0.00 0.00 0.00 74 1010.9
20260906120003 21 196 0.0 0.0 0.00 0.00 0.00 74 1010.7
20260906114602 21 197 0.0 0.0 0.00 0.00 0.00 74 1010.5
20260906113102 21 198 0.0 0.0 0.00 0.00 0.00 73 1010.4
20260906111611 22 199 0.0 0.0 0.00 0.00 0.00 72 1010.3
20260906110055 22 202 0.0 0.0 0.00 0.00 0.00 72 1010.3
20260906104552 22 203 0.0 0.0 0.00 0.00 0.00 70 1010.2
20260906103049 22 203 0.0 0.0 0.00 0.00 0.00 69 1010.1
20260906101546 23 203 0.0 0.0 0.00 0.00 0.00 68 1010.1
20260906100042 23 203 0.0 0.0 0.00 0.00 0.00 66 1010.0
20260906094541 24 203 0.0 0.0 0.00 0.00 0.00 65 1010.1
20260906093041 24 203 0.0 0.0 0.00 0.00 0.00 65 1010.0
20260906091536 25 203 0.0 0.0 0.00 0.00 0.00 64 1010.0
20260906090034 25 204 0.0 0.0 0.00 0.00 0.00 63 1010.0
20260906084543 25 204 0.0 0.0 0.00 0.00 0.00 62 1010.0
20260906083035 25 203 0.0 0.0 0.00 0.00 0.00 61 1010.1
20260906081530 25 203 0.0 0.0 0.00 0.00 0.00 60 1010.3
20260906080030 25 203 0.0 0.0 0.00 0.00 0.00 60 1010.3
20260906074523 26 203 0.0 0.0 0.00 0.00 0.00 59 1010.2
20260906073022 26 196 0.0 0.0 0.00 0.00 0.00 57 1010.1
20260906071522 26 195 0.0 0.0 0.00 0.00 0.00 57 1010.1
20260906070021 26 194 0.0 0.0 0.00 0.00 0.00 57 1009.9
20260906064550 26 186 0.0 0.0 0.00 0.00 0.00 56 1010.3
20260906063056 26 201 0.0 0.0 0.00 0.00 0.00 56 1010.2
20260906061553 26 209 0.0 0.0 0.00 0.00 0.00 57 1010.3
20260906060046 26 360 0.0 0.0 0.00 0.00 0.00 57 1010.2
20260906054549 26 148 0.0 0.0 0.00 0.00 0.00 59 1010.1
20260906053051 26 151 0.0 0.0 0.00 0.00 0.00 60 1009.9
20260906051541 26 103 0.0 0.0 0.00 0.00 0.00 59 1009.9
20260906050043 26 140 0.0 0.0 0.00 0.00 0.00 59 1009.7
20260906044540 26 143 0.0 0.0 0.00 0.00 0.00 59 1009.6
20260906043040 25 140 0.0 0.0 0.00 0.00 0.00 60 1009.4
20260906041535 25 130 0.0 0.0 0.00 0.00 0.00 59 1009.4
20260906040038 26 142 0.0 0.0 0.00 0.00 0.00 59 1009.5
20260906034542 26 134 0.0 0.0 0.00 0.00 0.00 59 1009.3
20260906033030 26 149 0.0 0.0 0.00 0.00 0.00 59 1009.3
20260906031525 26 169 0.0 0.0 0.00 0.00 0.00 59 1009.4
20260906030024 26 142 0.0 0.0 0.00 0.00 0.00 58 1009.3
20260906024520 26 148 0.0 0.0 0.00 0.00 0.00 58 1009.1
20260906023018 27 134 0.0 0.0 0.00 0.00 0.00 58 1008.8
20260906021519 27 115 0.0 0.0 0.00 0.00 0.00 58 1008.6
20260906020014 27 124 0.0 0.0 0.00 0.00 0.00 58 1008.5
20260906014524 27 113 0.0 0.0 0.00 0.00 0.00 58 1008.3
20260906013013 27 117 0.0 0.0 0.00 0.00 0.00 54 1008.1
20260906011506 27 115 0.0 0.0 0.00 0.00 0.00 54 1007.9
20260906010003 28 117 0.0 0.0 0.00 0.00 0.00 55 1008.0
20260906004501 28 122 0.0 0.0 0.00 0.00 0.00 54 1008.1
20260906003111 28 117 0.0 0.0 0.00 0.00 0.00 52 1008.2
20260906001553 29 118 0.0 0.0 0.00 0.00 0.00 50 1008.4
20260906000046 30 107 0.0 0.0 0.00 0.00 0.00 47 1008.4
20260905234542 31 99 0.0 0.0 0.00 0.00 0.00 47 1008.2
20260905233038 32 103 0.0 0.0 0.00 0.00 0.00 42 1008.2
20260905231538 35 125 0.0 0.0 0.00 0.00 0.00 33 1007.7
20260905230002 36 130 0.0 0.0 0.00 0.00 0.00 33 1007.3
20260905224600 36 142 0.0 0.0 0.00 0.00 0.00 33 1007.1
20260905223055 36 141 0.0 0.0 0.00 0.00 0.00 33 1007.0
20260905221552 36 148 0.0 0.0 0.00 0.00 0.00 33 1006.9
20260905220050 36 175 0.0 0.0 0.00 0.00 0.00 33 1006.8
20260905214546 36 188 0.0 0.0 0.00 0.00 0.00 33 1007.0
20260905213045 36 196 0.0 0.0 0.00 0.00 0.00 33 1007.2
20260905211543 37 144 0.0 0.0 0.00 0.00 0.00 32 1007.2
20260905210037 36 219 0.0 0.0 0.00 0.00 0.00 33 1007.3
20260905204541 36 169 0.0 0.0 0.00 0.00 0.00 33 1007.6
20260905203035 36 209 0.0 0.0 0.00 0.00 0.00 34 1008.1
20260905201538 36 191 0.0 0.0 0.00 0.00 0.00 35 1008.4